Location: Agendoh
(31.0664°N, 8.9343°W)
Time: 08:40:01
(UTC+00:00)

Cosmos 2369 Rocket - Pass Details

Date: 06 December 2021
Orbit: 827 x 854 km, 71.0° (Epoch: 24 January)

Event Time Altitude Azimuth Distance (km) Brightness Sun altitude
Exits shadow 06:16:09 11° 327° (NNW) 2,347 4.1 -13.6°
Drops below altitude 10° 06:16:42 10° 332° (NNW) 2,435 4.2 -13.4°
Sets 06:20:32 0° 358° (N) 3,376 5.1 -12.7°
